Location: San Gennaro Vesuviano
(40.8833°N, 14.5333°E)
Time: 10:13:27
(UTC+00:00)

Cosmos 2227 Rocket - Pass Details

Date: 22 April 2021
Orbit: 840 x 844 km, 71.0° (Epoch: 11 May)

Event Time Altitude Azimuth Distance (km) Brightness Sun altitude
Rises 20:33:35 0° 232° (SW) 3,390 5.4 -26.8°
Reaches altitude 10° 20:36:19 10° 242° (WSW) 2,458 4.7 -27.1°
Maximum altitude 20:41:15 31° 303° (WNW) 1,457 3.9 -27.7°
Drops below altitude 10° 20:46:13 10° 5° (N) 2,469 5.2 -28.3°
Sets 20:48:58 0° 16° (NNE) 3,407 5.8 -28.6°
